DW6221 Weather Reports


time (UTC)temp
F
wind
direction
speed
knots
gust
knots
rain 1hr
in
rain 24hr
in
rain mn
in
humidity
%
barometer
mb
20260507070028 49 346 0.0 0.0 0.02 0.20 0.04 96 1011.9
20260507064523 50 346 0.0 0.0 0.02 0.20 0.04 95 1012.1
20260507063020 50 346 0.0 3.5 0.00 0.18 0.02 94 1012.3
20260507061516 50 346 1.7 5.2 0.01 0.18 0.02 93 1012.2
20260507060014 51 355 0.0 5.2 0.01 0.18 0.02 90 1012.2
20260507054517 52 355 2.6 7.8 0.01 0.18 0.02 93 1012.2
20260507053007 52 355 0.0 0.9 0.01 0.18 0.02 95 1011.9
20260507051506 53 355 1.7 5.2 0.01 0.17 0.01 94 1012.1
20260507050004 53 360 0.0 7.0 0.01 0.17 0.01 94 1011.9
20260507044501 53 9 0.0 7.0 0.01 0.17 0.01 95 1012.2
20260507043100 54 12 0.0 0.0 0.01 0.17 0.01 95 1011.9
20260507041556 54 12 0.9 5.2 0.01 0.16 0.00 93 1011.4
20260507040057 54 349 0.0 5.2 0.02 0.16 0.00 93 1011.3
20260507034556 54 348 1.7 6.1 0.02 0.16 0.16 92 1011.3
20260507033053 55 15 2.6 6.1 0.01 0.15 0.15 92 1011.4
20260507031545 56 12 2.6 11.3 0.01 0.15 0.15 92 1011.0
20260507030043 57 22 0.0 0.9 0.00 0.14 0.14 94 1011.1
20260507024538 58 23 0.0 6.1 0.00 0.14 0.14 91 1011.1
20260507023042 58 9 0.9 5.2 0.01 0.14 0.14 91 1010.7
20260507021534 58 9 2.6 6.1 0.01 0.14 0.14 91 1010.8
20260507020036 58 9 0.0 2.6 0.02 0.14 0.14 92 1010.6
20260507014530 60 25 1.7 8.7 0.02 0.14 0.14 92 1010.8
20260507013042 61 316 2.6 7.8 0.01 0.13 0.13 91 1011.0
20260507011525 62 24 0.0 4.3 0.01 0.13 0.13 92 1010.9
20260507010032 62 40 0.0 5.2 0.00 0.12 0.12 90 1010.8
20260507004523 63 29 0.0 2.6 0.00 0.12 0.12 92 1010.7
20260507003028 64 207 0.0 0.0 0.00 0.12 0.12 91 1010.1
20260507001522 64 207 0.0 0.0 0.00 0.12 0.12 91 1009.9
20260507000022 64 207 0.0 0.0 0.00 0.12 0.12 91 1009.5
20260506234521 64 207 0.0 0.0 0.00 0.12 0.12 91 1009.2
20260506233022 64 207 0.0 0.0 0.00 0.12 0.12 91 1009.2
20260506231520 65 207 0.0 0.0 0.00 0.12 0.12 90 1009.1
20260506230020 65 207 0.0 0.0 0.00 0.12 0.12 89 1009.2
20260506224519 65 207 0.0 0.0 0.00 0.12 0.12 90 1008.9
20260506223019 65 207 0.0 0.9 0.00 0.12 0.12 89 1009.1
20260506221516 65 201 0.0 0.0 0.00 0.12 0.12 90 1009.1
20260506220017 64 201 0.0 0.0 0.00 0.12 0.12 90 1009.2
20260506214531 65 201 0.0 0.0 0.00 0.12 0.12 89 1009.0
20260506213019 65 201 0.0 1.7 0.00 0.12 0.12 89 1008.5
20260506211515 66 227 0.0 3.5 0.00 0.12 0.12 86 1008.4
20260506210019 66 265 0.0 0.9 0.00 0.12 0.12 87 1008.5
20260506204514 67 188 0.0 6.1 0.00 0.12 0.12 87 1008.3
20260506203013 66 44 0.0 3.5 0.00 0.12 0.12 87 1008.3
20260506201513 67 238 0.0 0.9 0.00 0.12 0.12 87 1008.3
20260506200012 67 217 0.0 5.2 0.00 0.12 0.12 85 1008.2
20260506194508 66 250 0.0 4.3 0.00 0.12 0.12 86 1008.3
20260506193006 64 217 0.9 5.2 0.00 0.12 0.12 89 1008.4
20260506191502 64 173 0.0 1.7 0.00 0.12 0.12 90 1008.6
20260506184601 63 248 0.0 4.3 0.00 0.12 0.12 93 1008.7
20260506183103 63 201 0.9 5.2 0.00 0.12 0.12 90 1009.0
20260506181618 62 227 0.0 4.3 0.00 0.12 0.12 93 1009.0
20260506180048 61 240 0.0 5.2 0.00 0.12 0.12 94 1009.3
20260506174547 61 187 0.0 4.3 0.00 0.12 0.12 94 1009.3
20260506173056 61 140 0.0 3.5 0.00 0.12 0.12 94 1009.3
20260506171544 60 202 1.7 6.1 0.00 0.12 0.12 94 1009.3
20260506170042 60 155 0.0 6.1 0.00 0.12 0.12 94 1009.3
20260506164543 60 228 0.0 3.5 0.00 0.12 0.12 95 1009.4
20260506163040 60 157 0.0 8.7 0.00 0.12 0.12 95 1009.3
20260506161536 60 229 0.0 6.1 0.01 0.12 0.12 95 1009.7
20260506160035 60 222 0.0 6.1 0.03 0.12 0.12 95 1009.5
20260506154534 60 128 0.0 5.2 0.05 0.12 0.12 95 1009.3
20260506153036 60 207 0.0 4.3 0.05 0.12 0.12 95 1009.3
20260506151530 60 215 0.9 7.0 0.05 0.11 0.11 95 1010.0
20260506150032 60 167 0.0 1.7 0.04 0.09 0.09 95 1010.1
20260506144528 60 235 0.0 9.6 0.02 0.07 0.07 94 1010.3
20260506143030 60 258 0.9 7.0 0.04 0.07 0.07 94 1010.2
20260506141524 60 246 0.0 4.3 0.04 0.06 0.06 94 1009.6
20260506140023 60 211 0.0 5.2 0.04 0.05 0.05 94 1010.3
20260506134521 60 192 0.0 3.5 0.05 0.05 0.05 94 1010.3
20260506133017 60 214 0.0 3.5 0.03 0.03 0.03 92 1010.3
20260506131523 60 155 0.0 5.2 0.02 0.02 0.02 91 1010.3
20260506130014 61 161 0.0 1.7 0.01 0.01 0.01 89 1010.2
20260506124509 62 176 0.0 7.0 0.00 0.00 0.00 85 1010.3
20260506123006 62 57 0.0 5.2 0.00 0.00 0.00 82 1010.3
20260506121504 63 192 0.9 7.0 0.00 0.00 0.00 81 1010.6
20260506120010 63 213 0.9 5.2 0.00 0.00 0.00 79 1010.6
20260506114502 63 200 0.9 6.1 0.00 0.00 0.00 79 1010.3
20260506113100 63 211 2.6 6.1 0.00 0.00 0.00 79 1010.1
20260506111557 63 238 0.0 4.3 0.00 0.00 0.00 78 1009.9
20260506110056 64 227 0.9 5.2 0.00 0.00 0.00 76 1009.9
20260506104600 64 165 0.9 6.1 0.00 0.00 0.00 76 1009.7
20260506103056 63 201 1.7 6.1 0.00 0.00 0.00 76 1009.5
20260506101552 63 193 0.0 3.5 0.00 0.00 0.00 75 1009.6
20260506100051 63 217 0.0 7.0 0.00 0.00 0.00 75 1009.6
20260506094549 64 173 0.9 7.0 0.00 0.00 0.00 73 1009.5
20260506093048 64 193 0.9 5.2 0.00 0.00 0.00 73 1009.5
20260506091553 64 277 0.9 6.1 0.00 0.00 0.00 72 1009.5
20260506090051 64 235 0.0 3.5 0.00 0.00 0.00 72 1009.7
20260506084549 64 206 0.0 7.0 0.00 0.00 0.00 71 1009.9
20260506083043 64 152 0.0 3.5 0.00 0.00 0.00 70 1009.8
20260506081540 65 198 0.0 5.2 0.00 0.00 0.00 69 1009.7
20260506073037 65 199 0.0 0.9 0.00 0.00 0.00 67 1009.8
20260506071532 66 199 0.0 5.2 0.00 0.00 0.00 65 1010.0